TimeMST,TemperatureF,Dew PointF,Humidity,Sea Level PressureIn,VisibilityMPH,Wind Direction,Wind SpeedMPH,Gust SpeedMPH,PrecipitationIn,Events,Conditions,WindDirDegrees,DateUTC
12:53 AM,34.0,19.9,56,29.55,10.0,SSW,17.3,-,N/A,,Clear,210,2011-12-31 07:53:00
1:53 AM,33.1,19.0,56,29.49,10.0,South,15.0,21.9,N/A,,Clear,190,2011-12-31 08:53:00
2:53 AM,39.2,19.4,45,29.60,10.0,WSW,26.5,36.8,N/A,,Clear,250,2011-12-31 09:53:00
3:43 AM,41.0,17.6,39,29.58,10.0,WSW,48.3,66.7,0.00,Rain,Light Rain,250,2011-12-31 10:43:00
3:53 AM,37.9,23.0,55,29.46,10.0,WNW,34.5,43.7,0.00,Rain,Light Rain,290,2011-12-31 10:53:00
8:53 AM,21.9,14.0,72,29.72,-9999.0,North,-9999.0,-,N/A,,Unknown,0,2011-12-31 15:53:00
9:14 AM,21.2,15.8,80,29.78,10.0,West,40.3,51.8,N/A,,Scattered Clouds,280,2011-12-31 16:14:00
9:53 AM,-9999,-9999,N/A,29.84,-9999.0,North,-9999.0,-,N/A,,Unknown,0,2011-12-31 16:53:00
10:43 AM,-9999,-9999,N/A,29.90,-9999.0,North,-9999.0,-,N/A,,Overcast,0,2011-12-31 17:43:00
10:53 AM,-9999,-9999,N/A,29.91,-9999.0,North,-9999.0,-,N/A,,Overcast,0,2011-12-31 17:53:00
11:23 AM,-9999,-9999,N/A,29.96,-9999.0,North,-9999.0,-,N/A,,Overcast,0,2011-12-31 18:23:00
11:53 AM,-9999,-9999,N/A,29.98,-9999.0,North,-9999.0,-,N/A,,Overcast,0,2011-12-31 18:53:00
12:28 PM,-9999,-9999,N/A,29.99,-9999.0,North,-9999.0,-,N/A,,Unknown,0,2011-12-31 19:28:00
12:53 PM,-9999,-9999,N/A,30.00,-9999.0,North,-9999.0,-,N/A,,Unknown,0,2011-12-31 19:53:00
1:53 PM,-9999,-9999,N/A,30.03,-9999.0,North,-9999.0,-,N/A,,Overcast,0,2011-12-31 20:53:00
2:53 PM,25.0,10.9,55,30.08,10.0,North,-9999.0,-,N/A,,Scattered Clouds,0,2011-12-31 21:53:00
3:53 PM,23.0,14.0,68,30.13,10.0,WNW,21.9,-,N/A,,Mostly Cloudy,290,2011-12-31 22:53:00
4:53 PM,19.0,10.9,71,30.22,10.0,West,12.7,-,N/A,,Partly Cloudy,280,2011-12-31 23:53:00
5:53 PM,19.0,8.1,62,30.27,10.0,WNW,16.1,-,N/A,,Clear,290,2012-01-01 00:53:00
6:53 PM,16.0,7.0,68,30.29,10.0,WNW,12.7,-,N/A,,Clear,300,2012-01-01 01:53:00
7:53 PM,17.1,7.0,65,30.30,10.0,West,10.4,-,N/A,,Clear,260,2012-01-01 02:53:00
8:53 PM,17.1,6.1,62,30.39,10.0,SW,19.6,-,N/A,,Clear,220,2012-01-01 03:53:00
9:53 PM,17.6,5.0,58,30.25,10.0,SW,21.9,-,N/A,,Clear,230,2012-01-01 04:53:00
10:53 PM,18.0,3.0,52,30.26,10.0,SW,24.2,31.1,N/A,,Clear,230,2012-01-01 05:53:00
11:53 PM,18.0,3.0,52,30.23,10.0,SW,31.1,38.0,N/A,,Clear,230,2012-01-01 06:53:00